This demonstration page uses our WeatherBlox Daily Observations layout. Learn more.

Left ArrowRight Arrow

44.8408, -93.29828

Hourly Observations for June 20, 2017

Temp ( °F °C ) Dew Point ( °F °C ) Humidity (%) Winds ( mph kmh ) Pressure ( in mb ) Visibility ( mi km ) Precip ( " mm )
12:53 am 00:53 Partly Cloudy 64 17.8 50 10 60 60 WSW 5 7 29.91 1013 10 16 0.00 0.00
1:53 am 01:53 Mostly Cloudy 63 17.2 52 11.1 68 68 SW 7 11 29.88 1012 10 16 0.00 0.00
2:53 am 02:53 Cloudy 63 17.2 51 10.6 65 65 W 6 9 29.88 1012 10 16 0.00 0.00
3:53 am 03:53 Cloudy with Light Rain 62 16.7 54 12.2 75 75 Calm 29.88 1012 10 16 0.00 0.03
4:53 am 04:53 Cloudy with Light Rain 62 16.7 55 12.8 78 78 W 9 15 29.89 1012 9 14 0.03 0.76
5:53 am 05:53 Cloudy with Rain 60 15.6 54 12.2 80 80 WNW 9 15 29.90 1012 3 5 0.05 1.27
6:53 am 06:53 Mostly Cloudy 60 15.6 53 11.7 78 78 NNW 7 11 29.90 1013 10 16 0.09 2.29
7:53 am 07:53 Cloudy with Light Rain 60 15.6 53 11.7 78 78 VRB 5 7 29.92 1013 10 16 0.04 1.02
8:53 am 08:53 Mostly Cloudy 63 17.2 53 11.7 70 70 W 6 9 29.91 1013 10 16 0.04 1.02
9:53 am 09:53 Mostly Cloudy 66 18.9 54 12.2 65 65 NW 10 17 29.91 1013 10 16 0.00 0.00
10:53 am 10:53 Mostly Cloudy 70 21.1 54 12.2 57 57 NW 13 20 29.92 1013 10 16 0.00 0.00
11:53 am 11:53 Mostly Sunny 71 21.7 50 10 47 47 NW 13 20 29.92 1013 10 16 0.00 0.00
12:53 pm 12:53 Mostly Sunny 73 22.8 48 8.9 41 41 NNW 13 20 29.92 1013 10 16 0.00 0.00
1:53 pm 13:53 Mostly Cloudy 74 23.3 48 8.9 40 40 NW 15 24 29.92 1013 10 16 0.00 0.00
2:53 pm 14:53 Mostly Cloudy 75 23.9 47 8.3 37 37 WNW 9 15 29.92 1013 10 16 0.00 0.00
3:53 pm 15:53 Partly Cloudy 76 24.4 47 8.3 36 36 WNW 12 19 29.92 1013 10 16 0.00 0.00
4:53 pm 16:53 Partly Cloudy 74 23.3 48 8.9 40 40 NW 12 19 29.92 1013 10 16 0.00 0.00
5:53 pm 17:53 Partly Cloudy 75 23.9 48 8.9 39 39 NNW 12 19 29.91 1013 10 16 0.00 0.00
6:53 pm 18:53 Mostly Sunny 74 23.3 47 8.3 38 38 WNW 9 15 29.91 1013 10 16 0.00 0.00
7:53 pm 19:53 Mostly Sunny 74 23.3 47 8.3 38 38 NW 6 9 29.92 1013 10 16 0.00 0.00
8:53 pm 20:53 Mostly Sunny 69 20.6 48 8.9 47 47 NW 6 9 29.92 1013 10 16 0.00 0.00
9:53 pm 21:53 Clear 70 21.1 47 8.3 44 44 N 5 7 29.93 1014 10 16 0.00 0.00
10:53 pm 22:53 Clear 67 19.4 49 9.4 53 53 NNE 3 6 29.93 1014 10 16 0.00 0.00
11:53 pm 23:53 Clear 66 18.9 50 10 56 56 Calm 29.94 1014 10 16 0.00 0.00

Powered by AerisWeather